Index of /20260505/WXO-DD/model_rdps/10km/18/033
Name Last modified Size Description
Parent Directory -
20260505T18Z_MSC_RDPS_AbsoluteVorticity_IsbL-0250_RLatLon0.09_PT033H.grib2 2026-05-05 20:49 591K
20260505T18Z_MSC_RDPS_AbsoluteVorticity_IsbL-0500_RLatLon0.09_PT033H.grib2 2026-05-05 20:49 550K
20260505T18Z_MSC_RDPS_AbsoluteVorticity_IsbL-0700_RLatLon0.09_PT033H.grib2 2026-05-05 20:49 609K
20260505T18Z_MSC_RDPS_AbsoluteVorticity_IsbL-0850_RLatLon0.09_PT033H.grib2 2026-05-05 20:49 779K
20260505T18Z_MSC_RDPS_AirTemp_AGL-120m_RLatLon0.09_PT033H.grib2 2026-05-05 20:49 367K
20260505T18Z_MSC_RDPS_AirTemp_AGL-2m_RLatLon0.09_PT033H.grib2 2026-05-05 20:49 620K
20260505T18Z_MSC_RDPS_AirTemp_AGL-40m_RLatLon0.09_PT033H.grib2 2026-05-05 20:49 381K
20260505T18Z_MSC_RDPS_AirTemp_AGL-80m_RLatLon0.09_PT033H.grib2 2026-05-05 20:49 372K
20260505T18Z_MSC_RDPS_AirTemp_IsbL-0001_RLatLon0.09_PT033H.grib2 2026-05-05 20:49 299K
20260505T18Z_MSC_RDPS_AirTemp_IsbL-0005_RLatLon0.09_PT033H.grib2 2026-05-05 20:49 286K
20260505T18Z_MSC_RDPS_AirTemp_IsbL-0010_RLatLon0.09_PT033H.grib2 2026-05-05 20:49 297K
20260505T18Z_MSC_RDPS_AirTemp_IsbL-0020_RLatLon0.09_PT033H.grib2 2026-05-05 20:49 317K
20260505T18Z_MSC_RDPS_AirTemp_IsbL-0030_RLatLon0.09_PT033H.grib2 2026-05-05 20:49 333K
20260505T18Z_MSC_RDPS_AirTemp_IsbL-0050_RLatLon0.09_PT033H.grib2 2026-05-05 20:49 310K
20260505T18Z_MSC_RDPS_AirTemp_IsbL-0100_RLatLon0.09_PT033H.grib2 2026-05-05 20:49 419K
20260505T18Z_MSC_RDPS_AirTemp_IsbL-0150_RLatLon0.09_PT033H.grib2 2026-05-05 20:49 406K
20260505T18Z_MSC_RDPS_AirTemp_IsbL-0175_RLatLon0.09_PT033H.grib2 2026-05-05 20:49 400K
20260505T18Z_MSC_RDPS_AirTemp_IsbL-0200_RLatLon0.09_PT033H.grib2 2026-05-05 20:49 408K
20260505T18Z_MSC_RDPS_AirTemp_IsbL-0225_RLatLon0.09_PT033H.grib2 2026-05-05 20:49 410K
20260505T18Z_MSC_RDPS_AirTemp_IsbL-0250_RLatLon0.09_PT033H.grib2 2026-05-05 20:49 417K
20260505T18Z_MSC_RDPS_AirTemp_IsbL-0275_RLatLon0.09_PT033H.grib2 2026-05-05 20:49 396K
20260505T18Z_MSC_RDPS_AirTemp_IsbL-0300_RLatLon0.09_PT033H.grib2 2026-05-05 20:49 404K
20260505T18Z_MSC_RDPS_AirTemp_IsbL-0350_RLatLon0.09_PT033H.grib2 2026-05-05 20:49 419K
20260505T18Z_MSC_RDPS_AirTemp_IsbL-0400_RLatLon0.09_PT033H.grib2 2026-05-05 20:49 422K
20260505T18Z_MSC_RDPS_AirTemp_IsbL-0450_RLatLon0.09_PT033H.grib2 2026-05-05 20:49 430K
20260505T18Z_MSC_RDPS_AirTemp_IsbL-0500_RLatLon0.09_PT033H.grib2 2026-05-05 20:49 440K
20260505T18Z_MSC_RDPS_AirTemp_IsbL-0550_RLatLon0.09_PT033H.grib2 2026-05-05 20:49 419K
20260505T18Z_MSC_RDPS_AirTemp_IsbL-0600_RLatLon0.09_PT033H.grib2 2026-05-05 20:49 437K
20260505T18Z_MSC_RDPS_AirTemp_IsbL-0650_RLatLon0.09_PT033H.grib2 2026-05-05 20:49 451K
20260505T18Z_MSC_RDPS_AirTemp_IsbL-0700_RLatLon0.09_PT033H.grib2 2026-05-05 20:49 477K
20260505T18Z_MSC_RDPS_AirTemp_IsbL-0750_RLatLon0.09_PT033H.grib2 2026-05-05 20:49 515K
20260505T18Z_MSC_RDPS_AirTemp_IsbL-0800_RLatLon0.09_PT033H.grib2 2026-05-05 20:49 447K
20260505T18Z_MSC_RDPS_AirTemp_IsbL-0850_RLatLon0.09_PT033H.grib2 2026-05-05 20:49 493K
20260505T18Z_MSC_RDPS_AirTemp_IsbL-0875_RLatLon0.09_PT033H.grib2 2026-05-05 20:49 511K
20260505T18Z_MSC_RDPS_AirTemp_IsbL-0900_RLatLon0.09_PT033H.grib2 2026-05-05 20:49 519K
20260505T18Z_MSC_RDPS_AirTemp_IsbL-0925_RLatLon0.09_PT033H.grib2 2026-05-05 20:49 519K
20260505T18Z_MSC_RDPS_AirTemp_IsbL-0950_RLatLon0.09_PT033H.grib2 2026-05-05 20:49 514K
20260505T18Z_MSC_RDPS_AirTemp_IsbL-0970_RLatLon0.09_PT033H.grib2 2026-05-05 20:49 509K
20260505T18Z_MSC_RDPS_AirTemp_IsbL-0985_RLatLon0.09_PT033H.grib2 2026-05-05 20:49 498K
20260505T18Z_MSC_RDPS_AirTemp_IsbL-1000_RLatLon0.09_PT033H.grib2 2026-05-05 20:49 479K
20260505T18Z_MSC_RDPS_AirTemp_IsbL-1015_RLatLon0.09_PT033H.grib2 2026-05-05 20:49 480K
20260505T18Z_MSC_RDPS_Albedo_Sfc_RLatLon0.09_PT033H.grib2 2026-05-05 20:49 159K
20260505T18Z_MSC_RDPS_CAPE_Sfc_RLatLon0.09_PT033H.grib2 2026-05-05 20:49 1.7M
20260505T18Z_MSC_RDPS_CIN_Sfc_RLatLon0.09_PT033H.grib2 2026-05-05 20:49 1.2M
20260505T18Z_MSC_RDPS_CloudWater_EAtm_RLatLon0.09_PT033H.grib2 2026-05-05 20:49 222K
20260505T18Z_MSC_RDPS_ConvectivePrecip-Accum_Sfc_RLatLon0.09_PT033H.grib2 2026-05-05 20:49 892K
20260505T18Z_MSC_RDPS_DewPointDepression_AGL-2m_RLatLon0.09_PT033H.grib2 2026-05-05 20:49 401K
20260505T18Z_MSC_RDPS_DewPointDepression_IsbL-0001_RLatLon0.09_PT033H.grib2 2026-05-05 20:49 193
20260505T18Z_MSC_RDPS_DewPointDepression_IsbL-0005_RLatLon0.09_PT033H.grib2 2026-05-05 20:49 193
20260505T18Z_MSC_RDPS_DewPointDepression_IsbL-0010_RLatLon0.09_PT033H.grib2 2026-05-05 20:49 193
20260505T18Z_MSC_RDPS_DewPointDepression_IsbL-0020_RLatLon0.09_PT033H.grib2 2026-05-05 20:49 193
20260505T18Z_MSC_RDPS_DewPointDepression_IsbL-0030_RLatLon0.09_PT033H.grib2 2026-05-05 20:49 193
20260505T18Z_MSC_RDPS_DewPointDepression_IsbL-0050_RLatLon0.09_PT033H.grib2 2026-05-05 20:49 80K
20260505T18Z_MSC_RDPS_DewPointDepression_IsbL-0100_RLatLon0.09_PT033H.grib2 2026-05-05 20:49 113K
20260505T18Z_MSC_RDPS_DewPointDepression_IsbL-0150_RLatLon0.09_PT033H.grib2 2026-05-05 20:49 137K
20260505T18Z_MSC_RDPS_DewPointDepression_IsbL-0175_RLatLon0.09_PT033H.grib2 2026-05-05 20:49 177K
20260505T18Z_MSC_RDPS_DewPointDepression_IsbL-0200_RLatLon0.09_PT033H.grib2 2026-05-05 20:49 216K
20260505T18Z_MSC_RDPS_DewPointDepression_IsbL-0225_RLatLon0.09_PT033H.grib2 2026-05-05 20:49 245K
20260505T18Z_MSC_RDPS_DewPointDepression_IsbL-0250_RLatLon0.09_PT033H.grib2 2026-05-05 20:49 291K
20260505T18Z_MSC_RDPS_DewPointDepression_IsbL-0275_RLatLon0.09_PT033H.grib2 2026-05-05 20:49 303K
20260505T18Z_MSC_RDPS_DewPointDepression_IsbL-0300_RLatLon0.09_PT033H.grib2 2026-05-05 20:49 322K
20260505T18Z_MSC_RDPS_DewPointDepression_IsbL-0350_RLatLon0.09_PT033H.grib2 2026-05-05 20:49 329K
20260505T18Z_MSC_RDPS_DewPointDepression_IsbL-0400_RLatLon0.09_PT033H.grib2 2026-05-05 20:49 340K
20260505T18Z_MSC_RDPS_DewPointDepression_IsbL-0450_RLatLon0.09_PT033H.grib2 2026-05-05 20:49 345K
20260505T18Z_MSC_RDPS_DewPointDepression_IsbL-0500_RLatLon0.09_PT033H.grib2 2026-05-05 20:49 347K
20260505T18Z_MSC_RDPS_DewPointDepression_IsbL-0550_RLatLon0.09_PT033H.grib2 2026-05-05 20:49 357K
20260505T18Z_MSC_RDPS_DewPointDepression_IsbL-0600_RLatLon0.09_PT033H.grib2 2026-05-05 20:49 363K
20260505T18Z_MSC_RDPS_DewPointDepression_IsbL-0650_RLatLon0.09_PT033H.grib2 2026-05-05 20:49 366K
20260505T18Z_MSC_RDPS_DewPointDepression_IsbL-0700_RLatLon0.09_PT033H.grib2 2026-05-05 20:49 376K
20260505T18Z_MSC_RDPS_DewPointDepression_IsbL-0750_RLatLon0.09_PT033H.grib2 2026-05-05 20:49 398K
20260505T18Z_MSC_RDPS_DewPointDepression_IsbL-0800_RLatLon0.09_PT033H.grib2 2026-05-05 20:49 440K
20260505T18Z_MSC_RDPS_DewPointDepression_IsbL-0850_RLatLon0.09_PT033H.grib2 2026-05-05 20:49 472K
20260505T18Z_MSC_RDPS_DewPointDepression_IsbL-0875_RLatLon0.09_PT033H.grib2 2026-05-05 20:49 472K
20260505T18Z_MSC_RDPS_DewPointDepression_IsbL-0900_RLatLon0.09_PT033H.grib2 2026-05-05 20:49 465K
20260505T18Z_MSC_RDPS_DewPointDepression_IsbL-0925_RLatLon0.09_PT033H.grib2 2026-05-05 20:49 455K
20260505T18Z_MSC_RDPS_DewPointDepression_IsbL-0950_RLatLon0.09_PT033H.grib2 2026-05-05 20:49 443K
20260505T18Z_MSC_RDPS_DewPointDepression_IsbL-0970_RLatLon0.09_PT033H.grib2 2026-05-05 20:49 433K
20260505T18Z_MSC_RDPS_DewPointDepression_IsbL-0985_RLatLon0.09_PT033H.grib2 2026-05-05 20:49 430K
20260505T18Z_MSC_RDPS_DewPointDepression_IsbL-1000_RLatLon0.09_PT033H.grib2 2026-05-05 20:49 424K
20260505T18Z_MSC_RDPS_DewPointDepression_IsbL-1015_RLatLon0.09_PT033H.grib2 2026-05-05 20:49 414K
20260505T18Z_MSC_RDPS_DewPoint_AGL-2m_RLatLon0.09_PT033H.grib2 2026-05-05 20:49 390K
20260505T18Z_MSC_RDPS_DownwardLongwaveRadiationFlux-Accum_Sfc_RLatLon0.09_PT033H.grib2 2026-05-05 20:49 488K
20260505T18Z_MSC_RDPS_DownwardShortwaveRadiationFlux-Accum_NTAtm_RLatLon0.09_PT033H.grib2 2026-05-05 20:49 148K
20260505T18Z_MSC_RDPS_DownwardShortwaveRadiationFlux-Accum_Sfc_RLatLon0.09_PT033H.grib2 2026-05-05 20:49 523K
20260505T18Z_MSC_RDPS_FreezingRain-Accum1h_Sfc_RLatLon0.09_PT033H.grib2 2026-05-05 20:49 29K
20260505T18Z_MSC_RDPS_FreezingRain-Accum3h_Sfc_RLatLon0.09_PT033H.grib2 2026-05-05 20:49 30K
20260505T18Z_MSC_RDPS_FreezingRain-Accum_Sfc_RLatLon0.09_PT033H.grib2 2026-05-05 20:49 123K
20260505T18Z_MSC_RDPS_GeopotentialHeight_IsbL-0001_RLatLon0.09_PT033H.grib2 2026-05-05 20:49 307K
20260505T18Z_MSC_RDPS_GeopotentialHeight_IsbL-0005_RLatLon0.09_PT033H.grib2 2026-05-05 20:49 332K
20260505T18Z_MSC_RDPS_GeopotentialHeight_IsbL-0010_RLatLon0.09_PT033H.grib2 2026-05-05 20:49 334K
20260505T18Z_MSC_RDPS_GeopotentialHeight_IsbL-0020_RLatLon0.09_PT033H.grib2 2026-05-05 20:49 300K
20260505T18Z_MSC_RDPS_GeopotentialHeight_IsbL-0030_RLatLon0.09_PT033H.grib2 2026-05-05 20:49 302K
20260505T18Z_MSC_RDPS_GeopotentialHeight_IsbL-0050_RLatLon0.09_PT033H.grib2 2026-05-05 20:49 303K
20260505T18Z_MSC_RDPS_GeopotentialHeight_IsbL-0100_RLatLon0.09_PT033H.grib2 2026-05-05 20:49 283K
20260505T18Z_MSC_RDPS_GeopotentialHeight_IsbL-0150_RLatLon0.09_PT033H.grib2 2026-05-05 20:49 226K
20260505T18Z_MSC_RDPS_GeopotentialHeight_IsbL-0175_RLatLon0.09_PT033H.grib2 2026-05-05 20:49 229K
20260505T18Z_MSC_RDPS_GeopotentialHeight_IsbL-0200_RLatLon0.09_PT033H.grib2 2026-05-05 20:49 263K
20260505T18Z_MSC_RDPS_GeopotentialHeight_IsbL-0225_RLatLon0.09_PT033H.grib2 2026-05-05 20:49 265K
20260505T18Z_MSC_RDPS_GeopotentialHeight_IsbL-0250_RLatLon0.09_PT033H.grib2 2026-05-05 20:49 266K
20260505T18Z_MSC_RDPS_GeopotentialHeight_IsbL-0275_RLatLon0.09_PT033H.grib2 2026-05-05 20:49 234K
20260505T18Z_MSC_RDPS_GeopotentialHeight_IsbL-0300_RLatLon0.09_PT033H.grib2 2026-05-05 20:49 234K
20260505T18Z_MSC_RDPS_GeopotentialHeight_IsbL-0350_RLatLon0.09_PT033H.grib2 2026-05-05 20:49 231K
20260505T18Z_MSC_RDPS_GeopotentialHeight_IsbL-0400_RLatLon0.09_PT033H.grib2 2026-05-05 20:49 227K
20260505T18Z_MSC_RDPS_GeopotentialHeight_IsbL-0450_RLatLon0.09_PT033H.grib2 2026-05-05 20:49 295K
20260505T18Z_MSC_RDPS_GeopotentialHeight_IsbL-0500_RLatLon0.09_PT033H.grib2 2026-05-05 20:49 290K
20260505T18Z_MSC_RDPS_GeopotentialHeight_IsbL-0550_RLatLon0.09_PT033H.grib2 2026-05-05 20:49 286K
20260505T18Z_MSC_RDPS_GeopotentialHeight_IsbL-0600_RLatLon0.09_PT033H.grib2 2026-05-05 20:49 281K
20260505T18Z_MSC_RDPS_GeopotentialHeight_IsbL-0650_RLatLon0.09_PT033H.grib2 2026-05-05 20:49 253K
20260505T18Z_MSC_RDPS_GeopotentialHeight_IsbL-0700_RLatLon0.09_PT033H.grib2 2026-05-05 20:49 333K
20260505T18Z_MSC_RDPS_GeopotentialHeight_IsbL-0750_RLatLon0.09_PT033H.grib2 2026-05-05 20:49 336K
20260505T18Z_MSC_RDPS_GeopotentialHeight_IsbL-0800_RLatLon0.09_PT033H.grib2 2026-05-05 20:49 343K
20260505T18Z_MSC_RDPS_GeopotentialHeight_IsbL-0850_RLatLon0.09_PT033H.grib2 2026-05-05 20:49 383K
20260505T18Z_MSC_RDPS_GeopotentialHeight_IsbL-0875_RLatLon0.09_PT033H.grib2 2026-05-05 20:49 385K
20260505T18Z_MSC_RDPS_GeopotentialHeight_IsbL-0900_RLatLon0.09_PT033H.grib2 2026-05-05 20:49 389K
20260505T18Z_MSC_RDPS_GeopotentialHeight_IsbL-0925_RLatLon0.09_PT033H.grib2 2026-05-05 20:49 393K
20260505T18Z_MSC_RDPS_GeopotentialHeight_IsbL-0950_RLatLon0.09_PT033H.grib2 2026-05-05 20:49 395K
20260505T18Z_MSC_RDPS_GeopotentialHeight_IsbL-0970_RLatLon0.09_PT033H.grib2 2026-05-05 20:49 365K
20260505T18Z_MSC_RDPS_GeopotentialHeight_IsbL-0985_RLatLon0.09_PT033H.grib2 2026-05-05 20:49 374K
20260505T18Z_MSC_RDPS_GeopotentialHeight_IsbL-1000_RLatLon0.09_PT033H.grib2 2026-05-05 20:49 385K
20260505T18Z_MSC_RDPS_GeopotentialHeight_IsbL-1015_RLatLon0.09_PT033H.grib2 2026-05-05 20:49 398K
20260505T18Z_MSC_RDPS_HighLowPressure_MSL_RLatLon0.09_PT033H.json 2026-05-05 20:41 21K
20260505T18Z_MSC_RDPS_Humidex_Sfc_RLatLon0.09_PT033H.grib2 2026-05-05 20:49 2.4M
20260505T18Z_MSC_RDPS_IcePellets-Accum1h_Sfc_RLatLon0.09_PT033H.grib2 2026-05-05 20:49 4.2K
20260505T18Z_MSC_RDPS_IcePellets-Accum3h_Sfc_RLatLon0.09_PT033H.grib2 2026-05-05 20:49 5.4K
20260505T18Z_MSC_RDPS_IcePellets-Accum_Sfc_RLatLon0.09_PT033H.grib2 2026-05-05 20:49 24K
20260505T18Z_MSC_RDPS_KIndex_Sfc_RLatLon0.09_PT033H.grib2 2026-05-05 20:49 2.5M
20260505T18Z_MSC_RDPS_LatentHeatNetFlux_Sfc_RLatLon0.09_PT033H.grib2 2026-05-05 20:49 317K
20260505T18Z_MSC_RDPS_LiftedIndex-MU-VT_IsbL-0500_RLatLon0.09_PT033H.grib2 2026-05-05 20:49 2.4M
20260505T18Z_MSC_RDPS_NetLongwaveRadiationFlux-Accum_Sfc_RLatLon0.09_PT033H.grib2 2026-05-05 20:49 495K
20260505T18Z_MSC_RDPS_NetShortwaveRadiationFlux-Accum_Sfc_RLatLon0.09_PT033H.grib2 2026-05-05 20:49 560K
20260505T18Z_MSC_RDPS_PlanetaryBoundaryLayerHeight_Sfc_RLatLon0.09_PT033H.grib2 2026-05-05 20:49 1.1M
20260505T18Z_MSC_RDPS_Precip-Accum1h_Sfc_RLatLon0.09_PT033H.grib2 2026-05-05 20:49 1.2M
20260505T18Z_MSC_RDPS_Precip-Accum3h_Sfc_RLatLon0.09_PT033H.grib2 2026-05-05 20:49 1.3M
20260505T18Z_MSC_RDPS_Precip-Accum_Sfc_RLatLon0.09_PT033H.grib2 2026-05-05 20:49 1.9M
20260505T18Z_MSC_RDPS_PrecipRate_Sfc_RLatLon0.09_PT033H.grib2 2026-05-05 20:49 184K
20260505T18Z_MSC_RDPS_PrecipType-Instant_Sfc_RLatLon0.09_PT033H.grib2 2026-05-05 20:49 553K
20260505T18Z_MSC_RDPS_Pressure-Trend3h_Sfc_RLatLon0.09_PT033H.grib2 2026-05-05 20:49 1.2M
20260505T18Z_MSC_RDPS_Pressure_MSL_RLatLon0.09_PT033H.grib2 2026-05-05 20:49 288K
20260505T18Z_MSC_RDPS_Pressure_PVU-1.5_RLatLon0.09_PT033H.grib2 2026-05-05 20:49 2.5M
20260505T18Z_MSC_RDPS_Pressure_PVU-1_RLatLon0.09_PT033H.grib2 2026-05-05 20:49 2.4M
20260505T18Z_MSC_RDPS_Pressure_PVU-2_RLatLon0.09_PT033H.grib2 2026-05-05 20:49 2.4M
20260505T18Z_MSC_RDPS_Pressure_Sfc_RLatLon0.09_PT033H.grib2 2026-05-05 20:49 496K
20260505T18Z_MSC_RDPS_RadiativeTemp_Sfc_RLatLon0.09_PT033H.grib2 2026-05-05 20:49 300K
20260505T18Z_MSC_RDPS_Rain-Accum1h_Sfc_RLatLon0.09_PT033H.grib2 2026-05-05 20:49 593K
20260505T18Z_MSC_RDPS_Rain-Accum3h_Sfc_RLatLon0.09_PT033H.grib2 2026-05-05 20:49 679K
20260505T18Z_MSC_RDPS_Rain-Accum_Sfc_RLatLon0.09_PT033H.grib2 2026-05-05 20:49 1.6M
20260505T18Z_MSC_RDPS_RelativeHumidity_AGL-2m_RLatLon0.09_PT033H.grib2 2026-05-05 20:49 1.0M
20260505T18Z_MSC_RDPS_RelativeHumidity_IsbL-0010_RLatLon0.09_PT033H.grib2 2026-05-05 20:49 593K
20260505T18Z_MSC_RDPS_RelativeHumidity_IsbL-0020_RLatLon0.09_PT033H.grib2 2026-05-05 20:49 658K
20260505T18Z_MSC_RDPS_RelativeHumidity_IsbL-0030_RLatLon0.09_PT033H.grib2 2026-05-05 20:49 599K
20260505T18Z_MSC_RDPS_RelativeHumidity_IsbL-0050_RLatLon0.09_PT033H.grib2 2026-05-05 20:49 354K
20260505T18Z_MSC_RDPS_RelativeHumidity_IsbL-0100_RLatLon0.09_PT033H.grib2 2026-05-05 20:49 275K
20260505T18Z_MSC_RDPS_RelativeHumidity_IsbL-0150_RLatLon0.09_PT033H.grib2 2026-05-05 20:49 411K
20260505T18Z_MSC_RDPS_RelativeHumidity_IsbL-0175_RLatLon0.09_PT033H.grib2 2026-05-05 20:49 464K
20260505T18Z_MSC_RDPS_RelativeHumidity_IsbL-0200_RLatLon0.09_PT033H.grib2 2026-05-05 20:49 537K
20260505T18Z_MSC_RDPS_RelativeHumidity_IsbL-0225_RLatLon0.09_PT033H.grib2 2026-05-05 20:49 600K
20260505T18Z_MSC_RDPS_RelativeHumidity_IsbL-0250_RLatLon0.09_PT033H.grib2 2026-05-05 20:49 662K
20260505T18Z_MSC_RDPS_RelativeHumidity_IsbL-0275_RLatLon0.09_PT033H.grib2 2026-05-05 20:49 691K
20260505T18Z_MSC_RDPS_RelativeHumidity_IsbL-0300_RLatLon0.09_PT033H.grib2 2026-05-05 20:49 739K
20260505T18Z_MSC_RDPS_RelativeHumidity_IsbL-0350_RLatLon0.09_PT033H.grib2 2026-05-05 20:49 763K
20260505T18Z_MSC_RDPS_RelativeHumidity_IsbL-0400_RLatLon0.09_PT033H.grib2 2026-05-05 20:49 782K
20260505T18Z_MSC_RDPS_RelativeHumidity_IsbL-0450_RLatLon0.09_PT033H.grib2 2026-05-05 20:49 789K
20260505T18Z_MSC_RDPS_RelativeHumidity_IsbL-0500_RLatLon0.09_PT033H.grib2 2026-05-05 20:49 790K
20260505T18Z_MSC_RDPS_RelativeHumidity_IsbL-0550_RLatLon0.09_PT033H.grib2 2026-05-05 20:49 808K
20260505T18Z_MSC_RDPS_RelativeHumidity_IsbL-0600_RLatLon0.09_PT033H.grib2 2026-05-05 20:49 837K
20260505T18Z_MSC_RDPS_RelativeHumidity_IsbL-0650_RLatLon0.09_PT033H.grib2 2026-05-05 20:49 845K
20260505T18Z_MSC_RDPS_RelativeHumidity_IsbL-0700_RLatLon0.09_PT033H.grib2 2026-05-05 20:49 859K
20260505T18Z_MSC_RDPS_RelativeHumidity_IsbL-0750_RLatLon0.09_PT033H.grib2 2026-05-05 20:49 911K
20260505T18Z_MSC_RDPS_RelativeHumidity_IsbL-0800_RLatLon0.09_PT033H.grib2 2026-05-05 20:49 1.0M
20260505T18Z_MSC_RDPS_RelativeHumidity_IsbL-0850_RLatLon0.09_PT033H.grib2 2026-05-05 20:49 1.0M
20260505T18Z_MSC_RDPS_RelativeHumidity_IsbL-0875_RLatLon0.09_PT033H.grib2 2026-05-05 20:49 1.0M
20260505T18Z_MSC_RDPS_RelativeHumidity_IsbL-0900_RLatLon0.09_PT033H.grib2 2026-05-05 20:49 1.1M
20260505T18Z_MSC_RDPS_RelativeHumidity_IsbL-0925_RLatLon0.09_PT033H.grib2 2026-05-05 20:49 1.1M
20260505T18Z_MSC_RDPS_RelativeHumidity_IsbL-0950_RLatLon0.09_PT033H.grib2 2026-05-05 20:49 1.1M
20260505T18Z_MSC_RDPS_RelativeHumidity_IsbL-0970_RLatLon0.09_PT033H.grib2 2026-05-05 20:49 1.0M
20260505T18Z_MSC_RDPS_RelativeHumidity_IsbL-0985_RLatLon0.09_PT033H.grib2 2026-05-05 20:49 1.0M
20260505T18Z_MSC_RDPS_RelativeHumidity_IsbL-1000_RLatLon0.09_PT033H.grib2 2026-05-05 20:49 1.0M
20260505T18Z_MSC_RDPS_RelativeHumidity_IsbL-1015_RLatLon0.09_PT033H.grib2 2026-05-05 20:49 1.0M
20260505T18Z_MSC_RDPS_Runoff-Accum_Sfc_RLatLon0.09_PT033H.grib2 2026-05-05 20:49 65K
20260505T18Z_MSC_RDPS_SWEATIndex_Sfc_RLatLon0.09_PT033H.grib2 2026-05-05 20:49 2.4M
20260505T18Z_MSC_RDPS_SeeingIndex_EAtm_RLatLon0.09_PT033H.grib2 2026-05-05 20:49 1.0M
20260505T18Z_MSC_RDPS_SensibleHeatNetFlux_Sfc_RLatLon0.09_PT033H.grib2 2026-05-05 20:49 208K
20260505T18Z_MSC_RDPS_ShowalterIndex_IsbL-0500_RLatLon0.09_PT033H.grib2 2026-05-05 20:49 2.6M
20260505T18Z_MSC_RDPS_SkyTransparencyIndex_EAtm_RLatLon0.09_PT033H.grib2 2026-05-05 20:49 721K
20260505T18Z_MSC_RDPS_Snow-Accum1h_Sfc_RLatLon0.09_PT033H.grib2 2026-05-05 20:49 446K
20260505T18Z_MSC_RDPS_Snow-Accum3h_Sfc_RLatLon0.09_PT033H.grib2 2026-05-05 20:49 449K
20260505T18Z_MSC_RDPS_Snow-Accum_Sfc_RLatLon0.09_PT033H.grib2 2026-05-05 20:49 735K
20260505T18Z_MSC_RDPS_SnowDensity_Sfc_RLatLon0.09_PT033H.grib2 2026-05-05 20:49 174K
20260505T18Z_MSC_RDPS_SnowDepth_Sfc_RLatLon0.09_PT033H.grib2 2026-05-05 20:49 648K
20260505T18Z_MSC_RDPS_SoilTemp_DBS-0to10cm_RLatLon0.09_PT033H.grib2 2026-05-05 20:49 236K
20260505T18Z_MSC_RDPS_SoilTemp_Sfc_RLatLon0.09_PT033H.grib2 2026-05-05 20:49 277K
20260505T18Z_MSC_RDPS_SoilVolumetricIceContent_Sfc_RLatLon0.09_PT033H.grib2 2026-05-05 20:49 150K
20260505T18Z_MSC_RDPS_SoilVolumetricWaterContent_DBS-0to10cm_RLatLon0.09_PT033H.grib2 2026-05-05 20:49 281K
20260505T18Z_MSC_RDPS_SoilVolumetricWaterContent_DBS-0to1cm_RLatLon0.09_PT033H.grib2 2026-05-05 20:49 341K
20260505T18Z_MSC_RDPS_SpecificHumidity_AGL-120m_RLatLon0.09_PT033H.grib2 2026-05-05 20:49 486K
20260505T18Z_MSC_RDPS_SpecificHumidity_AGL-2m_RLatLon0.09_PT033H.grib2 2026-05-05 20:49 653K
20260505T18Z_MSC_RDPS_SpecificHumidity_AGL-40m_RLatLon0.09_PT033H.grib2 2026-05-05 20:49 493K
20260505T18Z_MSC_RDPS_SpecificHumidity_AGL-80m_RLatLon0.09_PT033H.grib2 2026-05-05 20:49 487K
20260505T18Z_MSC_RDPS_SpecificHumidity_IsbL-0001_RLatLon0.09_PT033H.grib2 2026-05-05 20:49 404K
20260505T18Z_MSC_RDPS_SpecificHumidity_IsbL-0005_RLatLon0.09_PT033H.grib2 2026-05-05 20:49 376K
20260505T18Z_MSC_RDPS_SpecificHumidity_IsbL-0010_RLatLon0.09_PT033H.grib2 2026-05-05 20:49 409K
20260505T18Z_MSC_RDPS_SpecificHumidity_IsbL-0020_RLatLon0.09_PT033H.grib2 2026-05-05 20:49 497K
20260505T18Z_MSC_RDPS_SpecificHumidity_IsbL-0030_RLatLon0.09_PT033H.grib2 2026-05-05 20:49 371K
20260505T18Z_MSC_RDPS_SpecificHumidity_IsbL-0050_RLatLon0.09_PT033H.grib2 2026-05-05 20:49 479K
20260505T18Z_MSC_RDPS_SpecificHumidity_IsbL-0100_RLatLon0.09_PT033H.grib2 2026-05-05 20:49 422K
20260505T18Z_MSC_RDPS_SpecificHumidity_IsbL-0150_RLatLon0.09_PT033H.grib2 2026-05-05 20:49 455K
20260505T18Z_MSC_RDPS_SpecificHumidity_IsbL-0175_RLatLon0.09_PT033H.grib2 2026-05-05 20:49 436K
20260505T18Z_MSC_RDPS_SpecificHumidity_IsbL-0200_RLatLon0.09_PT033H.grib2 2026-05-05 20:49 463K
20260505T18Z_MSC_RDPS_SpecificHumidity_IsbL-0225_RLatLon0.09_PT033H.grib2 2026-05-05 20:49 442K
20260505T18Z_MSC_RDPS_SpecificHumidity_IsbL-0250_RLatLon0.09_PT033H.grib2 2026-05-05 20:49 500K
20260505T18Z_MSC_RDPS_SpecificHumidity_IsbL-0275_RLatLon0.09_PT033H.grib2 2026-05-05 20:49 462K
20260505T18Z_MSC_RDPS_SpecificHumidity_IsbL-0300_RLatLon0.09_PT033H.grib2 2026-05-05 20:49 439K
20260505T18Z_MSC_RDPS_SpecificHumidity_IsbL-0350_RLatLon0.09_PT033H.grib2 2026-05-05 20:49 559K
20260505T18Z_MSC_RDPS_SpecificHumidity_IsbL-0400_RLatLon0.09_PT033H.grib2 2026-05-05 20:49 519K
20260505T18Z_MSC_RDPS_SpecificHumidity_IsbL-0450_RLatLon0.09_PT033H.grib2 2026-05-05 20:49 571K
20260505T18Z_MSC_RDPS_SpecificHumidity_IsbL-0500_RLatLon0.09_PT033H.grib2 2026-05-05 20:49 502K
20260505T18Z_MSC_RDPS_SpecificHumidity_IsbL-0550_RLatLon0.09_PT033H.grib2 2026-05-05 20:49 558K
20260505T18Z_MSC_RDPS_SpecificHumidity_IsbL-0600_RLatLon0.09_PT033H.grib2 2026-05-05 20:49 625K
20260505T18Z_MSC_RDPS_SpecificHumidity_IsbL-0650_RLatLon0.09_PT033H.grib2 2026-05-05 20:49 539K
20260505T18Z_MSC_RDPS_SpecificHumidity_IsbL-0700_RLatLon0.09_PT033H.grib2 2026-05-05 20:49 582K
20260505T18Z_MSC_RDPS_SpecificHumidity_IsbL-0750_RLatLon0.09_PT033H.grib2 2026-05-05 20:49 639K
20260505T18Z_MSC_RDPS_SpecificHumidity_IsbL-0800_RLatLon0.09_PT033H.grib2 2026-05-05 20:49 727K
20260505T18Z_MSC_RDPS_SpecificHumidity_IsbL-0850_RLatLon0.09_PT033H.grib2 2026-05-05 20:49 803K
20260505T18Z_MSC_RDPS_SpecificHumidity_IsbL-0875_RLatLon0.09_PT033H.grib2 2026-05-05 20:49 829K
20260505T18Z_MSC_RDPS_SpecificHumidity_IsbL-0900_RLatLon0.09_PT033H.grib2 2026-05-05 20:49 843K
20260505T18Z_MSC_RDPS_SpecificHumidity_IsbL-0925_RLatLon0.09_PT033H.grib2 2026-05-05 20:49 848K
20260505T18Z_MSC_RDPS_SpecificHumidity_IsbL-0950_RLatLon0.09_PT033H.grib2 2026-05-05 20:49 846K
20260505T18Z_MSC_RDPS_SpecificHumidity_IsbL-0970_RLatLon0.09_PT033H.grib2 2026-05-05 20:49 693K
20260505T18Z_MSC_RDPS_SpecificHumidity_IsbL-0985_RLatLon0.09_PT033H.grib2 2026-05-05 20:49 686K
20260505T18Z_MSC_RDPS_SpecificHumidity_IsbL-1000_RLatLon0.09_PT033H.grib2 2026-05-05 20:49 679K
20260505T18Z_MSC_RDPS_SpecificHumidity_IsbL-1015_RLatLon0.09_PT033H.grib2 2026-05-05 20:49 667K
20260505T18Z_MSC_RDPS_SpecificHumidity_Sfc_RLatLon0.09_PT033H.grib2 2026-05-05 20:49 316K
20260505T18Z_MSC_RDPS_StormRelativeHelicity_EtaL-10000_RLatLon0.09_PT033H.grib2 2026-05-05 20:49 1.1M
20260505T18Z_MSC_RDPS_StormSeverityIndex_EtaL-10000_RLatLon0.09_PT033H.grib2 2026-05-05 20:49 1.2M
20260505T18Z_MSC_RDPS_Thickness_IsbL-0850to0700_RLatLon0.09_PT033H.grib2 2026-05-05 20:49 172K
20260505T18Z_MSC_RDPS_Thickness_IsbL-1000to0500_RLatLon0.09_PT033H.grib2 2026-05-05 20:49 191K
20260505T18Z_MSC_RDPS_Thickness_IsbL-1000to0850_RLatLon0.09_PT033H.grib2 2026-05-05 20:49 256K
20260505T18Z_MSC_RDPS_TotalCloudCover_Sfc_RLatLon0.09_PT033H.grib2 2026-05-05 20:49 660K
20260505T18Z_MSC_RDPS_TotalTotalsIndex_Sfc_RLatLon0.09_PT033H.grib2 2026-05-05 20:49 2.4M
20260505T18Z_MSC_RDPS_UVIndex-ClearSky_Sfc_RLatLon0.09_PT033H.grib2 2026-05-05 20:49 101K
20260505T18Z_MSC_RDPS_UVIndex_Sfc_RLatLon0.09_PT033H.grib2 2026-05-05 20:49 202K
20260505T18Z_MSC_RDPS_UpwardLongwaveRadiationFlux_NTAtm_RLatLon0.09_PT033H.grib2 2026-05-05 20:49 482K
20260505T18Z_MSC_RDPS_UpwardShortwaveRadiationFlux_NTAtm_RLatLon0.09_PT033H.grib2 2026-05-05 20:49 197K
20260505T18Z_MSC_RDPS_VerticalVelocity_IsbL-0250_RLatLon0.09_PT033H.grib2 2026-05-05 20:49 541K
20260505T18Z_MSC_RDPS_VerticalVelocity_IsbL-0500_RLatLon0.09_PT033H.grib2 2026-05-05 20:49 671K
20260505T18Z_MSC_RDPS_VerticalVelocity_IsbL-0700_RLatLon0.09_PT033H.grib2 2026-05-05 20:49 584K
20260505T18Z_MSC_RDPS_VerticalVelocity_IsbL-0850_RLatLon0.09_PT033H.grib2 2026-05-05 20:49 827K
20260505T18Z_MSC_RDPS_VerticalWindShear_EtaL-6500_RLatLon0.09_PT033H.grib2 2026-05-05 20:49 1.2M
20260505T18Z_MSC_RDPS_WindChill_Sfc_RLatLon0.09_PT033H.grib2 2026-05-05 20:49 1.2M
20260505T18Z_MSC_RDPS_WindDir_AGL-10m_RLatLon0.09_PT033H.grib2 2026-05-05 20:49 947K
20260505T18Z_MSC_RDPS_WindDir_AGL-120m_RLatLon0.09_PT033H.grib2 2026-05-05 20:49 586K
20260505T18Z_MSC_RDPS_WindDir_AGL-40m_RLatLon0.09_PT033H.grib2 2026-05-05 20:49 617K
20260505T18Z_MSC_RDPS_WindDir_AGL-80m_RLatLon0.09_PT033H.grib2 2026-05-05 20:49 598K
20260505T18Z_MSC_RDPS_WindDir_IsbL-0001_RLatLon0.09_PT033H.grib2 2026-05-05 20:49 309K
20260505T18Z_MSC_RDPS_WindDir_IsbL-0005_RLatLon0.09_PT033H.grib2 2026-05-05 20:49 361K
20260505T18Z_MSC_RDPS_WindDir_IsbL-0010_RLatLon0.09_PT033H.grib2 2026-05-05 20:49 379K
20260505T18Z_MSC_RDPS_WindDir_IsbL-0020_RLatLon0.09_PT033H.grib2 2026-05-05 20:49 420K
20260505T18Z_MSC_RDPS_WindDir_IsbL-0030_RLatLon0.09_PT033H.grib2 2026-05-05 20:49 407K
20260505T18Z_MSC_RDPS_WindDir_IsbL-0050_RLatLon0.09_PT033H.grib2 2026-05-05 20:49 434K
20260505T18Z_MSC_RDPS_WindDir_IsbL-0100_RLatLon0.09_PT033H.grib2 2026-05-05 20:49 409K
20260505T18Z_MSC_RDPS_WindDir_IsbL-0150_RLatLon0.09_PT033H.grib2 2026-05-05 20:49 406K
20260505T18Z_MSC_RDPS_WindDir_IsbL-0175_RLatLon0.09_PT033H.grib2 2026-05-05 20:49 431K
20260505T18Z_MSC_RDPS_WindDir_IsbL-0200_RLatLon0.09_PT033H.grib2 2026-05-05 20:49 453K
20260505T18Z_MSC_RDPS_WindDir_IsbL-0225_RLatLon0.09_PT033H.grib2 2026-05-05 20:49 459K
20260505T18Z_MSC_RDPS_WindDir_IsbL-0250_RLatLon0.09_PT033H.grib2 2026-05-05 20:49 454K
20260505T18Z_MSC_RDPS_WindDir_IsbL-0275_RLatLon0.09_PT033H.grib2 2026-05-05 20:49 472K
20260505T18Z_MSC_RDPS_WindDir_IsbL-0300_RLatLon0.09_PT033H.grib2 2026-05-05 20:49 466K
20260505T18Z_MSC_RDPS_WindDir_IsbL-0350_RLatLon0.09_PT033H.grib2 2026-05-05 20:49 492K
20260505T18Z_MSC_RDPS_WindDir_IsbL-0400_RLatLon0.09_PT033H.grib2 2026-05-05 20:49 509K
20260505T18Z_MSC_RDPS_WindDir_IsbL-0450_RLatLon0.09_PT033H.grib2 2026-05-05 20:49 525K
20260505T18Z_MSC_RDPS_WindDir_IsbL-0500_RLatLon0.09_PT033H.grib2 2026-05-05 20:49 539K
20260505T18Z_MSC_RDPS_WindDir_IsbL-0550_RLatLon0.09_PT033H.grib2 2026-05-05 20:49 556K
20260505T18Z_MSC_RDPS_WindDir_IsbL-0600_RLatLon0.09_PT033H.grib2 2026-05-05 20:49 582K
20260505T18Z_MSC_RDPS_WindDir_IsbL-0650_RLatLon0.09_PT033H.grib2 2026-05-05 20:49 623K
20260505T18Z_MSC_RDPS_WindDir_IsbL-0700_RLatLon0.09_PT033H.grib2 2026-05-05 20:49 670K
20260505T18Z_MSC_RDPS_WindDir_IsbL-0750_RLatLon0.09_PT033H.grib2 2026-05-05 20:49 721K
20260505T18Z_MSC_RDPS_WindDir_IsbL-0800_RLatLon0.09_PT033H.grib2 2026-05-05 20:49 785K
20260505T18Z_MSC_RDPS_WindDir_IsbL-0850_RLatLon0.09_PT033H.grib2 2026-05-05 20:49 855K
20260505T18Z_MSC_RDPS_WindDir_IsbL-0875_RLatLon0.09_PT033H.grib2 2026-05-05 20:49 879K
20260505T18Z_MSC_RDPS_WindDir_IsbL-0900_RLatLon0.09_PT033H.grib2 2026-05-05 20:49 889K
20260505T18Z_MSC_RDPS_WindDir_IsbL-0925_RLatLon0.09_PT033H.grib2 2026-05-05 20:49 898K
20260505T18Z_MSC_RDPS_WindDir_IsbL-0950_RLatLon0.09_PT033H.grib2 2026-05-05 20:49 896K
20260505T18Z_MSC_RDPS_WindDir_IsbL-0970_RLatLon0.09_PT033H.grib2 2026-05-05 20:49 901K
20260505T18Z_MSC_RDPS_WindDir_IsbL-0985_RLatLon0.09_PT033H.grib2 2026-05-05 20:49 909K
20260505T18Z_MSC_RDPS_WindDir_IsbL-1000_RLatLon0.09_PT033H.grib2 2026-05-05 20:49 921K
20260505T18Z_MSC_RDPS_WindDir_IsbL-1015_RLatLon0.09_PT033H.grib2 2026-05-05 20:49 938K
20260505T18Z_MSC_RDPS_WindGust-Max_AGL-10m_RLatLon0.09_PT033H.grib2 2026-05-05 20:49 1.0M
20260505T18Z_MSC_RDPS_WindGust-Min_AGL-10m_RLatLon0.09_PT033H.grib2 2026-05-05 20:49 963K
20260505T18Z_MSC_RDPS_WindGust_AGL-10m_RLatLon0.09_PT033H.grib2 2026-05-05 20:49 1.0M
20260505T18Z_MSC_RDPS_WindSpeed_AGL-10m_RLatLon0.09_PT033H.grib2 2026-05-05 20:49 828K
20260505T18Z_MSC_RDPS_WindSpeed_AGL-120m_RLatLon0.09_PT033H.grib2 2026-05-05 20:49 530K
20260505T18Z_MSC_RDPS_WindSpeed_AGL-40m_RLatLon0.09_PT033H.grib2 2026-05-05 20:49 663K
20260505T18Z_MSC_RDPS_WindSpeed_AGL-80m_RLatLon0.09_PT033H.grib2 2026-05-05 20:49 532K
20260505T18Z_MSC_RDPS_WindSpeed_IsbL-0001_RLatLon0.09_PT033H.grib2 2026-05-05 20:49 254K
20260505T18Z_MSC_RDPS_WindSpeed_IsbL-0005_RLatLon0.09_PT033H.grib2 2026-05-05 20:49 292K
20260505T18Z_MSC_RDPS_WindSpeed_IsbL-0010_RLatLon0.09_PT033H.grib2 2026-05-05 20:49 397K
20260505T18Z_MSC_RDPS_WindSpeed_IsbL-0020_RLatLon0.09_PT033H.grib2 2026-05-05 20:49 422K
20260505T18Z_MSC_RDPS_WindSpeed_IsbL-0030_RLatLon0.09_PT033H.grib2 2026-05-05 20:49 317K
20260505T18Z_MSC_RDPS_WindSpeed_IsbL-0050_RLatLon0.09_PT033H.grib2 2026-05-05 20:49 347K
20260505T18Z_MSC_RDPS_WindSpeed_IsbL-0100_RLatLon0.09_PT033H.grib2 2026-05-05 20:49 432K
20260505T18Z_MSC_RDPS_WindSpeed_IsbL-0150_RLatLon0.09_PT033H.grib2 2026-05-05 20:49 398K
20260505T18Z_MSC_RDPS_WindSpeed_IsbL-0175_RLatLon0.09_PT033H.grib2 2026-05-05 20:49 421K
20260505T18Z_MSC_RDPS_WindSpeed_IsbL-0200_RLatLon0.09_PT033H.grib2 2026-05-05 20:49 437K
20260505T18Z_MSC_RDPS_WindSpeed_IsbL-0225_RLatLon0.09_PT033H.grib2 2026-05-05 20:49 439K
20260505T18Z_MSC_RDPS_WindSpeed_IsbL-0250_RLatLon0.09_PT033H.grib2 2026-05-05 20:49 439K
20260505T18Z_MSC_RDPS_WindSpeed_IsbL-0275_RLatLon0.09_PT033H.grib2 2026-05-05 20:49 457K
20260505T18Z_MSC_RDPS_WindSpeed_IsbL-0300_RLatLon0.09_PT033H.grib2 2026-05-05 20:49 457K
20260505T18Z_MSC_RDPS_WindSpeed_IsbL-0350_RLatLon0.09_PT033H.grib2 2026-05-05 20:49 470K
20260505T18Z_MSC_RDPS_WindSpeed_IsbL-0400_RLatLon0.09_PT033H.grib2 2026-05-05 20:49 456K
20260505T18Z_MSC_RDPS_WindSpeed_IsbL-0450_RLatLon0.09_PT033H.grib2 2026-05-05 20:49 457K
20260505T18Z_MSC_RDPS_WindSpeed_IsbL-0500_RLatLon0.09_PT033H.grib2 2026-05-05 20:49 457K
20260505T18Z_MSC_RDPS_WindSpeed_IsbL-0550_RLatLon0.09_PT033H.grib2 2026-05-05 20:49 574K
20260505T18Z_MSC_RDPS_WindSpeed_IsbL-0600_RLatLon0.09_PT033H.grib2 2026-05-05 20:49 582K
20260505T18Z_MSC_RDPS_WindSpeed_IsbL-0650_RLatLon0.09_PT033H.grib2 2026-05-05 20:49 603K
20260505T18Z_MSC_RDPS_WindSpeed_IsbL-0700_RLatLon0.09_PT033H.grib2 2026-05-05 20:49 629K
20260505T18Z_MSC_RDPS_WindSpeed_IsbL-0750_RLatLon0.09_PT033H.grib2 2026-05-05 20:49 704K
20260505T18Z_MSC_RDPS_WindSpeed_IsbL-0800_RLatLon0.09_PT033H.grib2 2026-05-05 20:49 754K
20260505T18Z_MSC_RDPS_WindSpeed_IsbL-0850_RLatLon0.09_PT033H.grib2 2026-05-05 20:49 814K
20260505T18Z_MSC_RDPS_WindSpeed_IsbL-0875_RLatLon0.09_PT033H.grib2 2026-05-05 20:49 835K
20260505T18Z_MSC_RDPS_WindSpeed_IsbL-0900_RLatLon0.09_PT033H.grib2 2026-05-05 20:49 848K
20260505T18Z_MSC_RDPS_WindSpeed_IsbL-0925_RLatLon0.09_PT033H.grib2 2026-05-05 20:49 861K
20260505T18Z_MSC_RDPS_WindSpeed_IsbL-0950_RLatLon0.09_PT033H.grib2 2026-05-05 20:49 862K
20260505T18Z_MSC_RDPS_WindSpeed_IsbL-0970_RLatLon0.09_PT033H.grib2 2026-05-05 20:49 856K
20260505T18Z_MSC_RDPS_WindSpeed_IsbL-0985_RLatLon0.09_PT033H.grib2 2026-05-05 20:49 848K
20260505T18Z_MSC_RDPS_WindSpeed_IsbL-1000_RLatLon0.09_PT033H.grib2 2026-05-05 20:49 839K
20260505T18Z_MSC_RDPS_WindSpeed_IsbL-1015_RLatLon0.09_PT033H.grib2 2026-05-05 20:49 828K
20260505T18Z_MSC_RDPS_WindU_AGL-10m_RLatLon0.09_PT033H.grib2 2026-05-05 20:49 427K
20260505T18Z_MSC_RDPS_WindU_AGL-120m_RLatLon0.09_PT033H.grib2 2026-05-05 20:49 529K
20260505T18Z_MSC_RDPS_WindU_AGL-40m_RLatLon0.09_PT033H.grib2 2026-05-05 20:49 532K
20260505T18Z_MSC_RDPS_WindU_AGL-80m_RLatLon0.09_PT033H.grib2 2026-05-05 20:49 530K
20260505T18Z_MSC_RDPS_WindU_IsbL-0001_RLatLon0.09_PT033H.grib2 2026-05-05 20:49 243K
20260505T18Z_MSC_RDPS_WindU_IsbL-0005_RLatLon0.09_PT033H.grib2 2026-05-05 20:49 327K
20260505T18Z_MSC_RDPS_WindU_IsbL-0010_RLatLon0.09_PT033H.grib2 2026-05-05 20:49 297K
20260505T18Z_MSC_RDPS_WindU_IsbL-0020_RLatLon0.09_PT033H.grib2 2026-05-05 20:49 315K
20260505T18Z_MSC_RDPS_WindU_IsbL-0030_RLatLon0.09_PT033H.grib2 2026-05-05 20:49 350K
20260505T18Z_MSC_RDPS_WindU_IsbL-0050_RLatLon0.09_PT033H.grib2 2026-05-05 20:49 378K
20260505T18Z_MSC_RDPS_WindU_IsbL-0100_RLatLon0.09_PT033H.grib2 2026-05-05 20:49 331K
20260505T18Z_MSC_RDPS_WindU_IsbL-0150_RLatLon0.09_PT033H.grib2 2026-05-05 20:49 391K
20260505T18Z_MSC_RDPS_WindU_IsbL-0175_RLatLon0.09_PT033H.grib2 2026-05-05 20:49 414K
20260505T18Z_MSC_RDPS_WindU_IsbL-0200_RLatLon0.09_PT033H.grib2 2026-05-05 20:49 333K
20260505T18Z_MSC_RDPS_WindU_IsbL-0225_RLatLon0.09_PT033H.grib2 2026-05-05 20:49 335K
20260505T18Z_MSC_RDPS_WindU_IsbL-0250_RLatLon0.09_PT033H.grib2 2026-05-05 20:49 333K
20260505T18Z_MSC_RDPS_WindU_IsbL-0275_RLatLon0.09_PT033H.grib2 2026-05-05 20:49 348K
20260505T18Z_MSC_RDPS_WindU_IsbL-0300_RLatLon0.09_PT033H.grib2 2026-05-05 20:49 345K
20260505T18Z_MSC_RDPS_WindU_IsbL-0350_RLatLon0.09_PT033H.grib2 2026-05-05 20:49 357K
20260505T18Z_MSC_RDPS_WindU_IsbL-0400_RLatLon0.09_PT033H.grib2 2026-05-05 20:49 462K
20260505T18Z_MSC_RDPS_WindU_IsbL-0450_RLatLon0.09_PT033H.grib2 2026-05-05 20:49 463K
20260505T18Z_MSC_RDPS_WindU_IsbL-0500_RLatLon0.09_PT033H.grib2 2026-05-05 20:49 463K
20260505T18Z_MSC_RDPS_WindU_IsbL-0550_RLatLon0.09_PT033H.grib2 2026-05-05 20:49 464K
20260505T18Z_MSC_RDPS_WindU_IsbL-0600_RLatLon0.09_PT033H.grib2 2026-05-05 20:49 471K
20260505T18Z_MSC_RDPS_WindU_IsbL-0650_RLatLon0.09_PT033H.grib2 2026-05-05 20:49 490K
20260505T18Z_MSC_RDPS_WindU_IsbL-0700_RLatLon0.09_PT033H.grib2 2026-05-05 20:49 513K
20260505T18Z_MSC_RDPS_WindU_IsbL-0750_RLatLon0.09_PT033H.grib2 2026-05-05 20:49 540K
20260505T18Z_MSC_RDPS_WindU_IsbL-0800_RLatLon0.09_PT033H.grib2 2026-05-05 20:49 581K
20260505T18Z_MSC_RDPS_WindU_IsbL-0850_RLatLon0.09_PT033H.grib2 2026-05-05 20:49 631K
20260505T18Z_MSC_RDPS_WindU_IsbL-0875_RLatLon0.09_PT033H.grib2 2026-05-05 20:49 648K
20260505T18Z_MSC_RDPS_WindU_IsbL-0900_RLatLon0.09_PT033H.grib2 2026-05-05 20:49 657K
20260505T18Z_MSC_RDPS_WindU_IsbL-0925_RLatLon0.09_PT033H.grib2 2026-05-05 20:49 664K
20260505T18Z_MSC_RDPS_WindU_IsbL-0950_RLatLon0.09_PT033H.grib2 2026-05-05 20:49 655K
20260505T18Z_MSC_RDPS_WindU_IsbL-0970_RLatLon0.09_PT033H.grib2 2026-05-05 20:49 651K
20260505T18Z_MSC_RDPS_WindU_IsbL-0985_RLatLon0.09_PT033H.grib2 2026-05-05 20:49 644K
20260505T18Z_MSC_RDPS_WindU_IsbL-1000_RLatLon0.09_PT033H.grib2 2026-05-05 20:49 776K
20260505T18Z_MSC_RDPS_WindU_IsbL-1015_RLatLon0.09_PT033H.grib2 2026-05-05 20:49 769K
20260505T18Z_MSC_RDPS_WindV_AGL-10m_RLatLon0.09_PT033H.grib2 2026-05-05 20:49 424K
20260505T18Z_MSC_RDPS_WindV_AGL-120m_RLatLon0.09_PT033H.grib2 2026-05-05 20:49 412K
20260505T18Z_MSC_RDPS_WindV_AGL-40m_RLatLon0.09_PT033H.grib2 2026-05-05 20:49 530K
20260505T18Z_MSC_RDPS_WindV_AGL-80m_RLatLon0.09_PT033H.grib2 2026-05-05 20:49 528K
20260505T18Z_MSC_RDPS_WindV_IsbL-0001_RLatLon0.09_PT033H.grib2 2026-05-05 20:49 294K
20260505T18Z_MSC_RDPS_WindV_IsbL-0005_RLatLon0.09_PT033H.grib2 2026-05-05 20:49 287K
20260505T18Z_MSC_RDPS_WindV_IsbL-0010_RLatLon0.09_PT033H.grib2 2026-05-05 20:49 298K
20260505T18Z_MSC_RDPS_WindV_IsbL-0020_RLatLon0.09_PT033H.grib2 2026-05-05 20:49 317K
20260505T18Z_MSC_RDPS_WindV_IsbL-0030_RLatLon0.09_PT033H.grib2 2026-05-05 20:49 313K
20260505T18Z_MSC_RDPS_WindV_IsbL-0050_RLatLon0.09_PT033H.grib2 2026-05-05 20:49 340K
20260505T18Z_MSC_RDPS_WindV_IsbL-0100_RLatLon0.09_PT033H.grib2 2026-05-05 20:49 422K
20260505T18Z_MSC_RDPS_WindV_IsbL-0150_RLatLon0.09_PT033H.grib2 2026-05-05 20:49 388K
20260505T18Z_MSC_RDPS_WindV_IsbL-0175_RLatLon0.09_PT033H.grib2 2026-05-05 20:49 412K
20260505T18Z_MSC_RDPS_WindV_IsbL-0200_RLatLon0.09_PT033H.grib2 2026-05-05 20:49 332K
20260505T18Z_MSC_RDPS_WindV_IsbL-0225_RLatLon0.09_PT033H.grib2 2026-05-05 20:49 334K
20260505T18Z_MSC_RDPS_WindV_IsbL-0250_RLatLon0.09_PT033H.grib2 2026-05-05 20:49 332K
20260505T18Z_MSC_RDPS_WindV_IsbL-0275_RLatLon0.09_PT033H.grib2 2026-05-05 20:49 347K
20260505T18Z_MSC_RDPS_WindV_IsbL-0300_RLatLon0.09_PT033H.grib2 2026-05-05 20:49 344K
20260505T18Z_MSC_RDPS_WindV_IsbL-0350_RLatLon0.09_PT033H.grib2 2026-05-05 20:49 356K
20260505T18Z_MSC_RDPS_WindV_IsbL-0400_RLatLon0.09_PT033H.grib2 2026-05-05 20:49 359K
20260505T18Z_MSC_RDPS_WindV_IsbL-0450_RLatLon0.09_PT033H.grib2 2026-05-05 20:49 461K
20260505T18Z_MSC_RDPS_WindV_IsbL-0500_RLatLon0.09_PT033H.grib2 2026-05-05 20:49 461K
20260505T18Z_MSC_RDPS_WindV_IsbL-0550_RLatLon0.09_PT033H.grib2 2026-05-05 20:49 462K
20260505T18Z_MSC_RDPS_WindV_IsbL-0600_RLatLon0.09_PT033H.grib2 2026-05-05 20:49 469K
20260505T18Z_MSC_RDPS_WindV_IsbL-0650_RLatLon0.09_PT033H.grib2 2026-05-05 20:49 488K
20260505T18Z_MSC_RDPS_WindV_IsbL-0700_RLatLon0.09_PT033H.grib2 2026-05-05 20:49 510K
20260505T18Z_MSC_RDPS_WindV_IsbL-0750_RLatLon0.09_PT033H.grib2 2026-05-05 20:49 522K
20260505T18Z_MSC_RDPS_WindV_IsbL-0800_RLatLon0.09_PT033H.grib2 2026-05-05 20:49 564K
20260505T18Z_MSC_RDPS_WindV_IsbL-0850_RLatLon0.09_PT033H.grib2 2026-05-05 20:49 615K
20260505T18Z_MSC_RDPS_WindV_IsbL-0875_RLatLon0.09_PT033H.grib2 2026-05-05 20:49 634K
20260505T18Z_MSC_RDPS_WindV_IsbL-0900_RLatLon0.09_PT033H.grib2 2026-05-05 20:49 645K
20260505T18Z_MSC_RDPS_WindV_IsbL-0925_RLatLon0.09_PT033H.grib2 2026-05-05 20:49 654K
20260505T18Z_MSC_RDPS_WindV_IsbL-0950_RLatLon0.09_PT033H.grib2 2026-05-05 20:49 653K
20260505T18Z_MSC_RDPS_WindV_IsbL-0970_RLatLon0.09_PT033H.grib2 2026-05-05 20:49 648K
20260505T18Z_MSC_RDPS_WindV_IsbL-0985_RLatLon0.09_PT033H.grib2 2026-05-05 20:49 642K
20260505T18Z_MSC_RDPS_WindV_IsbL-1000_RLatLon0.09_PT033H.grib2 2026-05-05 20:49 773K
20260505T18Z_MSC_RDPS_WindV_IsbL-1015_RLatLon0.09_PT033H.grib2 2026-05-05 20:49 765K